Probability
0 0 0 0 0 0 0 0 0 0 0 0 0 0 0 0 0 0 0 0 0 0 0 0 0 0 0 0 0 0 0 0 0 0 13 19 29 32 84 97 100 100 100
0 0 0 0 0 0 0 0 0 0 0 0 0 0 0 0 0 0 0 0 0 0 0 0 0 0 0 0 0 0 0 0 0 0 13 23 19 16 42 81 97 100 100
0 0 0 0 0 0 0 0 0 0 0 0 0 0 0 0 0 0 0 0 0 0 0 0 0 0 0 0 0 0 0 0 0 0 3 19 32 23 48 68 84 100 100
0 0 0 0 0 0 0 0 0 0 0 0 0 0 0 0 0 0 0 0 0 0 0 0 0 0 0 0 0 0 0 0 0 0 0 13 35 42 65 74 65 84 100
0 0 0 0 0 0 0 0 0 0 0 0 0 0 0 0 0 0 0 0 0 0 0 0 0 0 0 0 0 0 0 0 0 0 0 3 26 45 61 84 71 74 90
0 0 0 0 0 0 0 0 0 0 0 0 0 0 0 0 0 0 0 0 0 0 0 0 0 0 0 0 0 0 0 0 0 0 0 0 10 55 68 87 77 77 87
0 0 0 0 0 0 0 0 0 0 0 0 0 0 0 0 0 0 0 0 0 0 0 0 0 0 0 0 0 0 0 0 0 0 0 0 3 32 77 84 71 77 87
0 0 0 0 0 0 0 0 0 0 0 0 0 0 0 0 0 0 0 0 0 0 0 0 0 0 0 0 0 0 0 0 0 0 0 0 0 13 48 77 81 87 90
0 0 0 0 0 0 0 0 0 0 0 0 0 0 0 0 0 0 0 0 0 0 0 0 0 0 0 0 0 0 0 0 0 0 0 0 0 0 29 61 77 81 84
0 0 0 0 0 0 0 0 0 0 0 0 0 0 0 0 0 0 0 0 0 0 0 0 0 0 0 0 0 0 0 0 0 0 0 0 0 0 0 32 74 74 74
0 0 0 0 0 0 0 0 0 0 0 0 0 0 0 0 0 0 0 0 0 0 0 0 0 0 0 0 0 0 0 0 0 0 0 0 0 0 0 10 45 61 65
0 0 0 0 0 0 0 0 0 0 0 0 0 0 0 0 0 0 0 0 0 0 0 0 0 0 0 0 0 0 0 0 0 0 0 0 0 0 0 6 16 16 39
0 0 0 0 0 0 0 0 0 0 0 0 0 0 0 0 0 0 0 0 0 0 0 0 0 0 0 0 0 0 0 0 0 0 0 0 0 0 0 0 0 3 10
0 0 0 0 0 0 0 0 0 0 0 0 0 0 0 0 0 0 0 0 0 0 0 0 0 0 0 0 0 0 0 0 0 0 0 0 0 0 0 0 0 0 0
0 0 0 0 0 0 0 0 0 0 0 0 0 0 0 0 0 0 0 0 0 0 0 0 0 0 0 0 0 0 0 0 0 0 0 0 0 0 0 0 0 0 0
0 0 0 0 0 0 0 0 0 0 0 0 0 0 0 0 0 0 0 0 0 0 0 0 0 0 0 0 0 0 0 0 0 0 0 0 0 0 0 0 0 0 0
0 0 0 0 0 0 0 0 0 0 0 0 0 0 0 0 0 0 0 0 0 0 0 0 0 0 0 0 0 0 0 0 0 0 0 0 0 0 0 0 0 0 0
0 0 0 0 0 0 0 0 0 0 0 0 0 0 0 0 0 0 0 0 0 0 0 0 0 0 0 0 0 0 0 0 0 0 0 0 0 0 0 0 0 0 0
0 0 0 0 0 0 0 0 0 0 0 0 0 0 0 0 0 0 0 0 0 0 0 0 0 0 0 0 0 0 0 0 0 0 0 0 0 0 0 0 0 0 0
0 0 0 0 0 0 0 0 0 0 0 0 0 0 0 0 0 0 0 0 0 0 0 0 0 0 0 0 0 0 0 0 0 0 0 0 0 0 0 0 0 0 0
0 0 0 0 0 0 0 0 0 0 0 0 0 0 0 0 0 0 0 0 0 0 0 0 0 0 0 0 0 0 0 0 0 0 0 0 0 0 0 0 0 0 0
0 0 0 0 0 0 0 0 0 0 0 0 0 0 0 0 0 0 0 0 0 0 0 0 0 0 0 0 0 0 0 0 0 0 0 0 0 0 0 0 0 0 0
0 0 0 0 0 0 0 0 0 0 0 0 0 0 0 0 0 0 0 0 0 0 0 0 0 0 0 0 0 0 0 0 0 0 0 0 0 0 0 0 0 0 0
0 0 0 0 0 0 0 0 0 0 0 0 0 0 0 0 0 0 0 0 0 0 0 0 0 0 0 0 0 0 0 0 0 0 0 0 0 0 0 0 0 0 0
0 0 0 0 0 0 0 0 0 0 0 0 0 0 0 0 0 0 0 0 0 0 0 0 0 0 0 0 0 0 0 0 0 0 0 0 0 0 0 0 0 0 0
0 0 0 0 0 0 0 0 0 0 0 0 0 0 0 0 0 0 0 0 0 0 0 0 0 0 0 0 0 0 0 0 0 0 0 0 0 0 0 0 0 0 0
Height
5647 5631 5616 5603 5591 5580 5571 5562 5556 5551 5548 5546 5545 5547 5551 5556 5564 5573 5586 5600 5614 5629 5644 5658 5673 5686 5697 5708 5719 5729 5740 5750 5759 5767 5775 5783 5790 5797 5803 5809 5816 5823 5830
5620 5605 5590 5576 5564 5554 5544 5536 5528 5524 5520 5517 5517 5517 5520 5525 5532 5539 5551 5566 5580 5596 5612 5628 5645 5660 5675 5688 5700 5711 5723 5734 5744 5754 5763 5771 5779 5786 5794 5800 5807 5814 5821
5594 5579 5564 5551 5539 5528 5518 5509 5502 5496 5493 5491 5490 5490 5492 5496 5501 5509 5519 5533 5547 5562 5579 5597 5616 5634 5651 5666 5679 5692 5705 5717 5729 5739 5749 5759 5767 5775 5783 5791 5798 5805 5813
5571 5555 5541 5528 5515 5503 5492 5483 5476 5470 5467 5465 5464 5465 5467 5470 5474 5481 5490 5501 5515 5529 5546 5566 5586 5606 5625 5642 5657 5672 5686 5699 5712 5724 5735 5746 5755 5764 5772 5781 5789 5796 5803
5550 5535 5520 5505 5491 5479 5467 5458 5451 5446 5443 5441 5441 5442 5444 5448 5451 5456 5463 5472 5484 5499 5515 5535 5556 5577 5597 5616 5634 5651 5666 5681 5694 5708 5720 5732 5742 5752 5761 5770 5779 5787 5794
5532 5516 5500 5484 5469 5456 5444 5434 5426 5421 5417 5416 5417 5419 5423 5427 5431 5435 5440 5447 5457 5470 5486 5506 5526 5547 5568 5590 5610 5629 5646 5661 5676 5690 5704 5717 5728 5739 5749 5759 5769 5777 5785
5514 5498 5480 5464 5448 5433 5419 5406 5396 5391 5388 5387 5389 5394 5400 5405 5410 5414 5420 5426 5433 5444 5461 5478 5496 5517 5540 5563 5585 5605 5624 5641 5657 5672 5687 5701 5714 5726 5737 5748 5758 5767 5776
5498 5480 5461 5444 5426 5409 5392 5377 5365 5357 5354 5353 5356 5364 5374 5383 5385 5394 5402 5407 5413 5423 5437 5451 5469 5490 5512 5536 5559 5582 5602 5620 5637 5654 5670 5685 5699 5712 5724 5736 5747 5757 5766
5481 5462 5443 5424 5404 5384 5368 5353 5339 5329 5323 5322 5323 5331 5343 5354 5363 5375 5381 5389 5396 5405 5414 5428 5445 5464 5486 5510 5534 5557 5579 5599 5618 5636 5652 5668 5684 5698 5711 5723 5735 5746 5756
5467 5447 5428 5407 5385 5365 5348 5334 5319 5307 5299 5296 5296 5301 5312 5326 5340 5353 5361 5371 5380 5388 5396 5408 5423 5441 5461 5485 5509 5533 5555 5577 5598 5617 5635 5652 5669 5684 5698 5710 5722 5734 5745
5454 5434 5414 5392 5370 5351 5335 5320 5306 5293 5282 5276 5276 5279 5288 5302 5316 5331 5343 5352 5363 5372 5380 5391 5404 5420 5439 5461 5486 5508 5532 5556 5578 5598 5618 5636 5654 5670 5685 5697 5710 5722 5733
5444 5424 5403 5380 5359 5342 5327 5312 5299 5285 5274 5267 5264 5265 5272 5284 5297 5311 5326 5336 5347 5357 5366 5376 5387 5400 5418 5439 5462 5487 5512 5536 5560 5581 5602 5622 5640 5657 5671 5685 5697 5709 5721
5436 5417 5395 5373 5352 5336 5322 5309 5297 5285 5273 5265 5261 5260 5264 5272 5283 5296 5310 5321 5333 5342 5352 5361 5371 5383 5399 5419 5442 5467 5492 5517 5541 5564 5586 5607 5626 5644 5659 5674 5686 5696 5708
5428 5409 5387 5366 5347 5332 5320 5309 5298 5287 5278 5270 5265 5263 5264 5269 5276 5286 5297 5309 5320 5330 5339 5347 5357 5368 5382 5402 5424 5448 5473 5499 5524 5548 5571 5593 5613 5630 5647 5662 5674 5685 5695
5422 5403 5382 5362 5343 5330 5318 5309 5300 5291 5283 5277 5272 5269 5268 5270 5274 5280 5288 5298 5309 5319 5328 5336 5344 5355 5368 5387 5408 5431 5456 5482 5508 5533 5556 5578 5598 5616 5634 5649 5662 5671 5680
5418 5400 5380 5360 5341 5328 5317 5308 5300 5293 5287 5281 5277 5273 5271 5271 5273 5277 5283 5291 5299 5309 5318 5325 5333 5343 5357 5375 5395 5417 5442 5467 5493 5518 5541 5563 5583 5602 5619 5636 5650 5658 5666
5416 5398 5378 5359 5341 5327 5315 5306 5299 5293 5287 5282 5278 5275 5273 5272 5273 5275 5279 5285 5292 5300 5309 5316 5323 5333 5347 5364 5384 5405 5429 5453 5478 5503 5526 5548 5568 5586 5604 5621 5636 5648 5656
5414 5396 5378 5359 5341 5326 5314 5304 5297 5291 5285 5281 5277 5274 5272 5271 5271 5273 5276 5281 5287 5294 5302 5309 5316 5326 5339 5355 5374 5395 5417 5440 5464 5488 5511 5532 5552 5571 5589 5606 5621 5635 5646
5413 5396 5378 5360 5342 5327 5314 5303 5294 5288 5282 5277 5274 5271 5269 5269 5269 5271 5273 5277 5282 5288 5295 5302 5309 5318 5331 5347 5365 5385 5405 5428 5451 5474 5497 5518 5538 5556 5575 5592 5607 5623 5636
5413 5397 5379 5361 5343 5327 5313 5302 5292 5285 5278 5273 5270 5267 5266 5265 5266 5268 5270 5273 5278 5283 5290 5296 5303 5312 5324 5339 5356 5375 5395 5416 5439 5461 5484 5505 5525 5542 5562 5580 5597 5612 5627
5414 5398 5381 5363 5345 5328 5313 5301 5291 5283 5276 5270 5266 5263 5262 5262 5262 5264 5266 5270 5274 5279 5285 5292 5299 5308 5319 5332 5349 5367 5387 5408 5430 5451 5473 5495 5514 5532 5549 5567 5584 5600 5615
5415 5399 5383 5366 5349 5331 5315 5302 5291 5283 5275 5269 5264 5261 5259 5259 5259 5261 5263 5266 5270 5275 5281 5288 5295 5303 5314 5327 5343 5361 5380 5399 5421 5442 5464 5484 5502 5520 5537 5556 5574 5590 5606
5418 5402 5386 5370 5354 5337 5321 5306 5295 5285 5277 5270 5265 5261 5259 5259 5259 5260 5262 5265 5269 5273 5278 5285 5292 5300 5311 5324 5339 5356 5373 5392 5414 5436 5457 5476 5494 5511 5527 5545 5562 5580 5596
5421 5406 5390 5375 5359 5343 5327 5312 5300 5289 5281 5274 5268 5264 5262 5261 5260 5261 5263 5265 5268 5272 5277 5283 5290 5299 5309 5321 5336 5352 5369 5388 5408 5429 5450 5469 5486 5503 5518 5535 5552 5570 5586
5424 5409 5394 5379 5364 5349 5333 5319 5306 5295 5286 5279 5274 5270 5267 5265 5265 5265 5266 5267 5270 5273 5277 5283 5289 5297 5307 5319 5333 5349 5366 5383 5402 5422 5440 5459 5477 5494 5509 5525 5542 5559 5577
5425 5411 5397 5383 5369 5356 5341 5326 5313 5302 5293 5286 5281 5277 5274 5272 5271 5270 5270 5271 5273 5275 5279 5283 5289 5297 5306 5318 5332 5348 5363 5380 5397 5415 5431 5450 5468 5484 5501 5515 5532 5550 5568
Wind_Speed
101 102 101 100 97 94 91 89 87 86 84 84 84 84 84 86 88 91 95 98 101 102 102 100 97 94 90 85 82 80 78 74 69 66 64 61 58 56 53 52 51 50 48
100 99 95 91 88 85 83 82 81 80 79 78 78 78 79 79 81 85 89 94 98 103 105 105 102 100 96 91 86 83 81 79 74 71 68 65 63 60 56 53 52 50 49
95 90 86 83 81 80 79 79 77 76 74 73 72 72 72 73 75 79 84 89 95 101 106 108 107 105 101 97 92 87 84 82 79 76 72 69 67 64 61 56 53 51 50
87 83 80 79 79 78 77 74 71 68 67 66 66 66 66 66 68 73 79 86 91 98 105 110 111 109 106 103 98 92 88 85 83 80 77 73 71 68 64 60 56 53 51
81 79 79 79 79 76 73 69 66 64 62 62 62 63 63 62 62 65 72 81 88 95 103 110 113 113 111 108 103 98 92 89 86 84 80 77 75 72 68 64 60 56 54
79 79 79 78 76 73 71 70 69 68 66 64 63 63 63 62 61 61 64 72 83 91 99 108 115 117 116 113 108 103 97 92 89 87 84 81 78 75 72 67 63 59 56
78 78 78 75 73 74 75 75 74 73 73 72 68 66 65 65 64 63 61 63 73 86 95 104 114 119 119 116 113 108 103 97 93 90 87 84 81 79 76 71 66 62 59
78 78 76 74 75 76 73 70 68 67 67 71 73 71 69 68 69 65 62 61 64 76 89 99 110 118 121 119 116 112 107 102 97 93 89 86 83 81 79 76 71 66 62
79 77 75 76 77 73 68 64 61 59 58 60 66 71 73 73 72 68 66 63 61 65 79 93 104 115 120 120 118 115 111 106 101 96 92 88 85 82 81 79 75 70 66
77 75 76 77 75 68 62 57 53 50 48 48 53 61 69 72 73 70 69 66 62 61 68 83 96 108 117 120 119 117 114 110 105 100 95 91 86 83 81 80 77 74 70
75 74 76 76 70 62 57 54 49 43 38 36 38 46 57 66 70 70 68 67 64 61 62 73 88 100 111 117 118 117 116 113 108 104 99 93 89 84 81 80 79 76 73
73 74 76 73 64 57 53 50 46 39 32 26 25 30 40 53 63 67 67 65 64 63 61 64 78 92 103 111 116 117 116 114 111 106 102 97 91 86 82 79 77 76 75
72 73 75 70 59 52 47 44 40 36 31 23 16 15 25 38 50 58 62 63 62 62 61 61 70 85 96 104 111 115 115 115 113 109 104 99 94 88 83 79 75 75 76
71 73 75 68 56 48 42 37 33 32 30 26 18 8 11 25 38 48 55 58 59 60 61 61 64 76 90 97 103 111 114 115 113 111 107 102 97 91 84 79 75 73 75
70 73 74 68 54 45 38 33 28 26 25 23 19 11 3 14 27 38 46 52 55 57 59 60 62 70 82 91 96 105 113 114 114 112 108 104 99 94 88 81 74 70 73
69 72 74 69 55 45 36 30 25 20 18 16 13 9 4 7 18 29 38 45 50 53 55 59 60 65 75 84 90 97 108 113 113 112 110 106 102 98 92 85 76 68 68
68 70 73 70 57 46 37 30 25 20 16 12 9 7 5 7 13 22 30 37 44 49 52 55 58 60 69 78 85 92 102 111 113 113 111 108 105 101 96 90 85 73 65
67 69 72 71 61 49 40 32 26 22 19 15 13 10 9 10 13 18 25 31 37 43 47 50 55 57 63 72 80 88 97 107 112 113 112 110 108 104 100 95 91 82 69
66 68 70 71 65 54 44 35 29 24 21 19 16 14 13 12 14 17 21 26 32 37 42 45 49 53 58 66 74 83 92 103 110 112 112 112 110 107 104 99 95 89 75
65 66 69 70 68 60 50 40 33 27 23 20 18 16 15 14 15 17 20 23 28 32 37 41 45 48 53 61 70 80 88 99 107 111 112 112 111 108 105 103 96 90 80
65 65 67 69 68 64 56 47 37 30 25 21 18 15 13 13 14 16 18 21 24 29 33 37 40 44 49 57 66 76 84 94 104 110 110 109 108 107 105 102 98 90 82
64 65 66 68 68 65 59 50 41 33 27 22 17 13 10 9 11 13 16 18 21 25 29 33 36 39 45 53 63 72 79 89 99 107 108 106 105 103 102 100 98 94 86
63 63 64 66 67 65 60 52 44 36 29 23 18 13 8 5 5 8 12 15 18 21 25 30 33 36 42 50 60 68 75 84 94 102 104 103 101 97 97 96 96 94 89
61 62 63 64 66 65 61 53 46 39 31 25 19 15 10 5 1 3 7 11 15 19 22 26 29 32 39 48 57 65 71 78 87 95 99 99 97 94 92 92 92 90 86
60 60 61 62 64 65 62 55 48 41 34 27 21 17 13 10 6 4 3 6 10 15 19 23 26 30 37 46 55 62 68 74 80 89 94 95 93 90 88 87 88 87 84
59 59 60 60 61 62 62 57 50 43 35 28 23 20 16 14 11 8 6 4 6 10 15 20 24 29 37 46 54 60 64 69 75 82 90 92 90 88 85 84 83 84 82
Wind_Direction
302 301 300 298 296 294 292 289 286 282 279 275 272 268 264 259 255 250 245 241 237 234 231 230 229 228 227 228 228 228 227 225 221 220 219 219 219 218 218 219 219 219 219
303 302 301 300 297 295 292 289 286 282 278 275 271 267 263 258 253 248 243 238 234 231 229 227 226 225 225 225 226 226 226 225 222 219 218 218 218 218 217 217 217 217 218
307 306 305 303 300 297 294 291 287 282 278 273 269 265 262 257 252 247 242 237 232 228 226 224 223 223 222 222 223 224 224 224 222 220 218 218 218 218 217 216 217 216 216
311 310 308 306 303 300 296 292 287 282 276 271 266 261 258 255 252 247 241 236 231 227 223 222 221 220 220 220 220 221 221 222 222 220 218 217 218 218 217 216 216 216 215
315 314 312 309 306 302 298 293 287 281 275 269 263 257 253 251 249 246 241 236 231 227 222 219 218 218 218 218 218 219 219 219 220 220 218 217 217 217 217 216 216 216 216
318 317 315 312 308 304 299 293 287 280 274 268 261 255 250 246 245 244 242 238 232 227 223 219 217 216 216 216 216 217 217 217 217 218 218 217 217 217 217 217 216 217 217
321 319 317 314 311 307 301 295 288 280 272 266 260 253 247 243 242 241 240 239 235 228 223 219 216 215 214 214 214 215 215 215 215 216 217 217 217 216 217 217 217 217 217
324 323 321 319 315 312 307 301 294 286 276 266 258 251 244 241 239 238 238 238 237 232 224 220 217 215 213 213 213 213 214 214 214 214 215 215 216 216 216 216 217 217 218
327 327 326 324 321 318 313 309 302 293 282 270 259 250 242 238 237 236 236 236 237 235 228 221 218 215 214 212 212 212 212 212 212 212 213 214 215 216 216 216 217 217 218
331 331 331 329 327 324 322 320 315 305 292 277 262 251 242 236 233 232 234 234 235 235 232 225 219 216 215 212 211 211 211 211 211 211 211 212 213 214 216 216 216 217 218
335 335 336 334 332 331 330 330 328 321 308 290 269 252 242 235 231 230 230 232 233 234 233 228 221 217 216 213 211 210 210 209 209 209 210 210 211 212 214 216 216 217 219
339 340 340 339 337 336 337 338 340 339 331 312 285 257 241 233 229 227 227 228 231 233 233 230 224 219 216 214 212 209 208 208 208 208 209 209 210 211 212 215 216 217 219
342 344 345 344 341 340 341 343 349 357 358 349 324 273 239 228 225 225 224 224 226 230 232 230 226 221 217 215 213 209 207 207 207 207 207 208 209 209 211 213 216 217 219
346 348 349 349 346 344 344 346 355 7 12 13 8 340 243 224 221 221 222 221 222 225 230 231 226 222 218 215 213 210 206 206 206 206 206 207 207 208 209 211 215 218 219
349 351 353 353 350 347 344 346 354 8 16 21 21 17 306 225 219 218 219 220 220 221 226 230 229 222 219 215 212 210 206 204 204 205 205 206 206 207 207 209 211 215 218
352 354 356 356 354 350 346 344 347 353 2 9 12 10 339 234 222 219 219 219 219 220 223 228 230 224 218 215 212 210 207 204 203 204 204 205 206 206 206 206 208 212 214
354 356 358 359 358 354 348 342 337 334 334 334 331 325 298 250 229 222 219 219 219 219 221 226 229 225 218 214 211 209 207 203 202 203 204 204 205 206 205 204 207 212 212
356 358 360 1 1 359 354 345 336 327 319 311 302 291 274 252 235 226 222 220 219 219 219 223 228 225 218 213 209 207 207 204 201 201 203 204 205 206 205 205 207 211 211
358 360 1 3 3 2 359 352 344 332 319 308 296 284 271 256 240 230 225 221 220 218 218 221 225 224 218 211 207 205 205 204 201 201 202 204 205 207 206 206 209 211 213
360 1 3 4 4 4 3 360 351 343 331 317 303 290 275 260 245 235 228 222 220 218 217 219 222 222 216 209 205 203 204 204 201 200 202 204 206 208 207 208 209 211 213
1 3 4 6 6 5 4 4 359 352 344 334 321 304 283 264 249 237 228 221 218 216 216 217 219 219 214 207 203 202 202 203 202 201 201 203 207 209 209 209 210 210 212
2 4 6 7 8 7 6 5 4 2 357 350 341 327 304 274 250 235 224 218 215 214 213 213 215 215 210 204 200 199 200 202 202 201 201 203 206 210 211 211 211 211 212
3 4 6 8 9 10 8 8 8 8 6 3 359 354 342 305 256 228 217 213 210 208 208 209 211 211 206 201 198 197 198 201 202 201 201 203 206 209 212 212 213 213 214
4 5 7 9 10 11 11 11 12 13 13 14 15 16 19 18 6 199 203 205 205 203 203 204 207 206 201 197 195 195 196 199 201 201 201 202 205 208 211 213 213 213 214
4 6 8 10 11 12 13 13 15 17 18 21 25 30 37 44 55 81 146 182 192 194 195 198 201 199 195 192 191 192 194 197 199 200 201 201 203 206 210 212 213 213 213
4 6 8 10 12 13 14 15 17 19 21 26 32 38 44 50 56 63 79 122 165 182 189 193 194 192 189 188 187 189 192 194 197 199 200 200 201 203 207 210 212 213 212